OBJECT CA, 60449

Orbit data source: Space-Track

You're viewing an Uncataloged Satellite

Recently launched and/or uncataloged satellites may have evolving metadata. Metadata may include but not limited to: Owner, Maufacturer, Bus, Motor, and Mission.

OBJECT CA, 60449 is a satellite in SSO that was launched on Mon, 12 Jun 2023 UTC launched from the Air Force Western Test Range (AFWTR). Unknown objects in Earth's orbit typically refer to objects detected orbiting the Earth but have not yet been identified or cataloged. These objects could be anything from previously untracked satellites, spent rocket stages, debris from satellite collisions, or even natural meteoroids temporarily captured by Earth's gravity.

Not visible in the next 10 days
Identifier
60449, 2023-084CA
Orbit
SSO
Country
Flag of TBDTBD
Related business
None
Manufacturer
Unknown (US)
Mission
Spacecraft
Bus & Motor
Unknown
Mass
Unknown
Launch date (UTC)
2023-06-12 (3 years ago)
Launch vehicle
Unknown
Launch site
Air Force Western Test Range (AFWTR)
Object type
Unknown
Shape & HBR
Unknown shape, 0.1 m
Radar Cross Section
Small (<0.1 m²)

Expand to show TLE details & history
Last TLE update: 1 month ago

TLE from 1 month ago
0 OBJECT CA
1 60449U 23084CA  25314.38057157  .00344702  00000-0  12254-2 0  9997
2 60449  97.5701 101.5344 0005486 290.6781  69.3902 15.88098979120453
Epoch: 2025-11-10T09:08Z
TLE epoch observation values (Epoch: 2025-11-10T09:08:01.383Z)
Latitude
-0.00002°
Longitude
-85.25366°
Altitude
309.501 km
Speed
7.723 km/s
True Right ascension
06h 46m 08s
True Declination
0° 00' 00"
Sunlit
Object was in full shadow at epoch
Visualization orbit readout
Latitude
Unknown
Longitude
Unknown
Altitude
Unknown
Speed
Unknown
Apparent Right ascension
Unknown
Apparent Declination
Unknown
Sunlit
N/A
Visualization observer readout
Local Sidereal Time
09:40:35
Azimuth
Unknown
Elevation
Unknown
Doppler factor
Unknown
Orbital elements
Apogee altitude
308.162 km
Perigee altitude
300.83 km
Semi-major axis
6,682.633 km
Eccentricity
0.00055
Inclination
97.5701°
RAAN
101.5344°
Arg. of periapsis
290.6781°
True anomaly
69.44906°
Mean anomaly
69.3902°
Eccentric anomaly
69.41963°
Mean motion
3.97303 °/min
Orbital period
90.61 mins
BSTAR
0.0012254
Loading maneuver chart data...
Computing Atmospheric mass density...
Loading historical data...
Loading historical data...
Loading historical data...
Loading historical data...
Loading historical data...
Loading historical data...
Loading historical data...

Documentation

Showing up to 5 results
|